SL-16 DEB, 43354

Orbit data source: Space-Track

SL-16 DEB, 43354 is space debris in LEO originally from a launch on Wed, 04 Sep 1996 UTC launched from the Tyuratam Missile And Space Complex (TTMTR). Debris objects in space refer to the collection of defunct objects orbiting the Earth. Examples of debris include non-operational satellites, rocket bodies, and fragments generated from explosions, collisions, or faulty payload assembly.

Loading next visibility...
Identifier
43354, 1996-051P
Orbit
LEO
Country
Flag of CISCIS
Related business
Manufacturer
Unknown
Mission
Spacecraft
Bus & Motor
Unknown
Mass
Unknown
Launch date (UTC)
1996-09-04 (29 years ago)
Launch vehicle
Unknown
Launch site
Tyuratam Missile And Space Complex (TTMTR)
Object type
Payload
Rocket body
Debris
Shape & HBR
Unknown shape, 0.1 m
Radar Cross Section
Small (<0.1 m²)

Expand to show TLE details & history
Last TLE update: 23 hours ago

TLE from 23 hours ago
0 SL-16 DEB
1 43354U 96051P   25344.70006975  .00000110  00000-0  78528-4 0  9998
2 43354  71.1901 340.4560 0091385  30.0570 330.5753 14.14081636621765
Epoch: 2025-12-10T16:48Z
TLE epoch observation values (Epoch: 2025-12-10T16:48:06.026Z)
Latitude
-0.00003°
Longitude
8.76424°
Altitude
790.491 km
Speed
7.488 km/s
True Right ascension
22h 41m 49s
True Declination
0° 00' 00"
Sunlit
Object was in daylight at epoch
Visualization orbit readout
Latitude
Unknown
Longitude
Unknown
Altitude
Unknown
Speed
Unknown
Apparent Right ascension
Unknown
Apparent Declination
Unknown
Sunlit
N/A
Visualization observer readout
Local Sidereal Time
14:14:32
Azimuth
Unknown
Elevation
Unknown
Doppler factor
Unknown
Orbital elements
Apogee altitude
909.338 km
Perigee altitude
777.351 km
Semi-major axis
7,221.482 km
Eccentricity
0.00914
Inclination
71.1901°
RAAN
340.456°
Arg. of periapsis
30.057°
True anomaly
330.05567°
Mean anomaly
330.5753°
Eccentric anomaly
330.31601°
Mean motion
3.53674 °/min
Orbital period
101.79 mins
BSTAR
0.000078528
Loading maneuver chart data...
Computing Atmospheric mass density...
Loading historical data...
Loading historical data...
Loading historical data...
Loading historical data...
Loading historical data...
Loading historical data...
Loading historical data...

Documentation

Showing up to 5 results
|